Regional Weather Roundup
Issued by NWS

Home | Current Version | Previous Version | Graphics & Text | Print | Product List | Glossary On
Versions: 1 2 3 4 5 6 7 8 9 10 11 12 13 14 15 16 17 18 19 20 21 22 23 24 25 26 27 28 29 30 31 32 33 34 35 36 37 38 39 40 41 42 43 44 45 46 47 48 49 50
000
ASUS43 KLOT 280508
RWRIL

ILLINOIS REGIONAL WEATHER ROUNDUP
NATIONAL WEATHER SERVICE CHICAGO/ROMEOVILLE IL
1200 AM CDT FRI APR 28 2017

NOTE: "FAIR" INDICATES FEW OR NO CLOUDS BELOW 12,000 FEET WITH NO
SIGNIFICANT WEATHER AND/OR OBSTRUCTIONS TO VISIBILITY.

* THESE STATIONS ARE NOT UNDER NWS QUALITY CONTROL. THEY ALSO MAY NOT
  REPORT WEATHER SUCH AS PRECIPITATION OR FOG.

ILZ001-002-007-009-015-016-024-280600-
NORTHWEST ILLINOIS

CITY           SKY/WX    TMP DP  RH WIND       PRES   REMARKS
MOLINE         CLOUDY    38  36  92 CALM      29.87R
STERLING*      CLEAR     37  36  96 SW3       29.88R
SAVANNA*       CLEAR     40  32  73 W3        29.87R
$$

ILZ003-004-008-010-011-017-018-280600-
NORTH CENTRAL ILLINOIS

CITY           SKY/WX    TMP DP  RH WIND       PRES   REMARKS
ROCKFORD       CLOUDY    43  35  73 W8        29.88R
FREEPORT*      CLEAR     35  32  88 SW3       29.88R
ROCHELLE*      CLEAR     36  35  96 SW5       29.88R WCI  32
DE KALB*       CLEAR     39  36  87 SW6       29.87R
PERU*          CLOUDY    42  38  86 CALM      29.88R
$$

ILZ005-006-012>014-019>023-280600-
NORTHEAST ILLINOIS

CITY           SKY/WX    TMP DP  RH WIND       PRES   REMARKS
CHICAGO-OHARE  PTCLDY    42  36  79 SW5       29.86R
CHICAGO-MIDWAY PTCLDY    44  37  76 SW6       29.87R
AURORA         CLEAR     40  37  89 S5        29.87R
LANSING*       PTCLDY    39  38  95 S3        29.87F
JOLIET*        CLEAR     38  37  97 CALM      29.88R
WAUKEGAN       CLOUDY    43  36  76 SW12      29.84R
DUPAGE AIRPORT CLEAR     39  37  92 SW7       29.86R WCI  34
KANKAKEE*      PTCLDY    42  37  81 CALM      29.89S
WHEELING       MOCLDY    43  37  79 SW5       29.87R
MORRIS*        CLEAR     41  39  91 CALM      29.87R
ROMEOVILLE*    CLEAR     40  39  96 CALM      29.87S
NORTHERLY ISL    N/A     45  36  70 S3          N/A
$$

LMZ740>746-280600-
SOUTHERN LAKE MICHIGAN

STATION/POSITION SKY/WX   TEMP    WIND        PRES    VSBY  WAVE
                          AIR SEA DIR/SP/G                  HT/PER
                          (F)     (DEG/KT/KT) (MB)    (MI)  (FT/S)
SOUTHERN BUOY              43 41  260/ 17/ 21 1009.8          3/ 5
HARRISON CRIB              47     240/ 15/ 17   N/A
BURNHAM HARBOR             45     240/  4/ 12   N/A
CALUMET HARBOR             44     240/  3/  4 1011.1R
BURNS HARBOR               48     210/ 10/ 14 1011.9F
MICHIGAN CITY              46     190/  9/ 11   N/A
MICHIGAN CITY 6N           47 47                N/A           3/ 4
ST. JOSEPH                 46 48  260/ 10/ 14 1012.4          3/ 4
$$

ILZ025>027-034>036-040-047-049-050-058-095>099-280600-
WEST-CENTRAL ILLINOIS

CITY           SKY/WX    TMP DP  RH WIND       PRES   REMARKS
QUINCY         CLOUDY    52  45  77 SE6       29.83F
GALESBURG*     MOCLDY    45  42  88 SE3       29.85F
MACOMB*        CLOUDY    48  44  85 S7        29.87F
JACKSONVILLE*  CLOUDY    50  46  88 SE6       29.88S
PITTSFIELD*    CLOUDY    51  49  93 NE8       29.85F
$$

ILZ028>032-037-038-041>044-048-051>054-059>061-280600-
CENTRAL ILLINOIS

CITY           SKY/WX    TMP DP  RH WIND       PRES   REMARKS
PONTIAC        CLEAR     46  45  98 SE7       29.89R
BLOOMINGTON    PTCLDY    46  44  93 S8        29.90R
DECATUR        CLOUDY    49  45  86 S7        29.92R
PEORIA         CLOUDY    49  45  86 S7        29.88R
LACON*         CLOUDY    42  41  98 CALM      29.87R
LINCOLN*       MOCLDY    50  47  90 S5        29.90R
SPRINGFIELD    PTCLDY    50  47  89 S6        29.90R
TAYLORVILLE    PTCLDY    48  46  92 E3        29.91S
$$

ILZ033-039-045-046-055>057-062-063-280600-
EAST-CENTRAL ILLINOIS

CITY           SKY/WX    TMP DP  RH WIND       PRES   REMARKS
CHAMPAIGN      CLOUDY    49  44  83 S7        29.91R
RANTOUL*       PTCLDY    50  46  86 S5        29.91R
MATTOON        MOCLDY    47  44  90 CALM      29.92R
PARIS*         PTCLDY    46  45  98 CALM      29.93R
$$

ILZ079-100>102-280600-
SOUTHWEST ILLINOIS

CITY           SKY/WX    TMP DP  RH WIND       PRES   REMARKS
ALTON          CLOUDY    52  48  86 NE6       29.86F
BELLEVILLE     CLOUDY    54  54  99 NE6       29.84F
CAHOKIA*       MOCLDY    56  49  77 E7        29.82F
SPARTA*        MOCLDY    54  48  82 E8        29.86F
$$

ILZ064>066-069>071-074>076-080>082-084>086-088>090-092>094-280600-
SOUTH-CENTRAL ILLINOIS

CITY           SKY/WX    TMP DP  RH WIND       PRES   REMARKS
CARBONDALE     MOCLDY    52  50  93 SE3       29.88S
CAIRO*         CLOUDY    54  52  95 NE3       29.86F
EFFINGHAM*     CLOUDY    46  46 100 CALM      29.94R FOG
MARION         CLOUDY    52  52 100 CALM      29.90R
MT. VERNON     MOCLDY    49  48  97 N3        29.90S
CENTRALIA*     CLOUDY    52  49  89 E3        29.89S
SALEM*         PTCLDY    53  47  82 CALM      29.90S
METROPOLIS*    PTCLDY    51  49  96 CALM      29.89S
$$

ILZ067-068-072-073-078-083-087-091-280600-
SOUTHEAST ILLINOIS

CITY           SKY/WX    TMP DP  RH WIND       PRES   REMARKS
LAWRENCEVILLE  PTCLDY    47  46  97 CALM      29.93R
FLORA*         PTCLDY    50  47  90 CALM      29.92R
FAIRFIELD*     CLOUDY    49  49  99 CALM      29.90S
HARRISBURG*    CLOUDY    51  51  97 NE3       29.89F
ROBINSON*      PTCLDY    45  44  99 CALM      29.93R
CARMI*         CLOUDY    50  49  98 NE3       29.90S
$$

ABBREVIATIONS USED IN REMARKS
   TC - TEMPERATURE IN CELSIUS
  WCI - WIND CHILL INDEX
   HX - HEAT INDEX
  VSB - VISIBILITY
$$





USA.gov is the U.S. government's official web portal to all federal, state and local government web resources and services.